Weather observations for the past three days for
Oberlin Municipal Airport
Imperial (Metric)
Date Time (cdt) Wind (mph) Vis. (mi.) Weather Sky Cond. Temperature (ºF) Relative Humidity Wind Chill (°F) Heat Index (°F) Pressure Precipitation (in)
Air Dwpt 6 hour altimeter (in) sea level (mb) 1 hr 3 hr 6 hr
Max. Min.
19 06:15 S 6 10.00 Fair CLR 66 62.1 87% 30.16 0.0
19 05:55 S 6 10.00 Fair CLR 65.7 62.1 88% 30.16 0.0
19 05:35 S 5 10.00 Fair CLR 65.7 62.1 88% 30.16 0.0
19 05:15 S 7 10.00 Fair CLR 66.4 62.4 87% 30.16 0.0
19 04:55 S 6 10.00 Fair CLR 65.7 62.2 89% 30.17 0.0
19 04:35 SW 5 10.00 Fair CLR 65.8 62.2 88% 30.17 0.0
19 04:15 S 5 10.00 Fair CLR 65.8 61.9 87% 30.16 0.0
19 03:55 S 3 10.00 Fair CLR 66.6 61.9 85% 30.17 0.0
19 03:35 S 6 10.00 Fair CLR 67.6 61.9 82% 30.17 0.0
19 03:15 S 7 10.00 Fair CLR 68.4 61.9 80% 30.18 0.0
19 02:55 S 6 10.00 Fair CLR 68.9 62.1 79% 30.18 0.0
19 02:35 S 5 10.00 Fair CLR 68.9 61.9 78% 30.18 0.0
19 02:15 S 6 10.00 Fair CLR 69.8 62.2 77% 30.18 0.0
19 01:55 S 5 10.00 Fair CLR 68.9 62.2 79% 30.19 0.0
19 01:35 S 3 0.00 Fair CLR 68.9 62.1 79% 30.19 0.0
19 01:15 S 5 0.00 Fair CLR 69.8 61.9 76% 30.19 0.0
19 00:55 S 6 0.00 Fair CLR 70.3 61.9 75% 30.19 0.0
19 00:35 S 5 10.00 Fair CLR 71.6 61.9 72% 30.19 0.0
19 00:15 S 5 10.00 Fair CLR 71.8 61.7 71% 30.19 0.0
18 23:55 S 6 10.00 Fair CLR 72.9 61.7 68% 30.19 0.0
18 23:35 S 7 10.00 Fair CLR 74.1 61.3 64% 30.18 0.0
18 23:15 S 7 0.00 Fair CLR 74.5 61.2 63% 30.19 0.0
18 22:55 S 7 0.00 Fair CLR 75.2 61 61% 77 30.2 0.0
18 22:35 S 9 0.00 Fair CLR 76.1 60.8 59% 78 30.19 0.0
18 21:55 S 8 10.00 Fair CLR 77.4 60.8 57% 79 30.18 0.0
18 21:35 S 6 10.00 Fair CLR 77.4 60.3 56% 79 30.18 0.0
18 21:15 S 8 0.00 Fair CLR 79 59.9 52% 80 30.16 0.0
18 20:55 SE 9 0.00 Fair CLR 80.6 59.5 49% 81 30.16 0.0
18 20:35 SE 13 G 16 0.00 Fair CLR 81.7 59.5 47% 82 30.16 0.0
18 20:15 SE 10 0.00 Fair CLR 83.1 59.7 45% 83 30.15 0.0
18 19:55 SE 13 G 18 0.00 Fair CLR 84 59.2 43% 84 30.16 0.0
18 19:35 SE 12 G 18 0.00 Fair CLR 84.4 59 42% 84 30.16 0.0
18 19:15 SE 9 G 21 0.00 Fair CLR 84.9 59.2 42% 85 30.16 0.0
18 18:55 S 12 G 17 0.00 Partly Cloudy SCT075 SCT085 88.9 58.3 36% 88 30.16 0.0
18 18:35 S 12 0.00 Fair CLR 89.2 58.5 35% 88 30.16 0.0
18 18:15 SE 8 0.00 Fair CLR 89.6 58.5 35% 89 30.16 0.0
18 17:55 SE 13 G 17 0.00 Fair CLR 89.8 58.6 35% 89 30.17 0.0
18 17:35 SE 8 0.00 Partly Cloudy SCT065 89.2 59 36% 88 30.18 0.0
18 17:15 SE 9 G 16 0.00 Partly Cloudy SCT065 SCT085 88.3 58.5 36% 87 30.18 0.0
18 16:55 SE 12 G 17 0.00 Mostly Cloudy BKN075 BKN085 90.5 59.5 35% 90 30.18 0.0
18 16:35 SE 10 0.00 Mostly Cloudy BKN070 87.4 58.8 38% 87 30.18 0.0
18 16:15 SE 8 0.00 Fair CLR 86.7 58.3 38% 86 30.19 0.0
18 15:55 S 12 0.00 Partly Cloudy SCT070 SCT080 90.5 59.9 36% 90 30.19 0.0
18 15:35 S 8 G 16 0.00 Partly Cloudy SCT055 SCT070 88.9 59.4 37% 88 30.2 0.0
18 15:15 SE 8 G 16 0.00 Partly Cloudy SCT055 SCT080 88.9 59.9 38% 88 30.21 0.0
18 14:55 S 9 G 17 0.00 Overcast BKN055 OVC080 89.1 60.3 38% 89 30.21 0.0
18 14:35 SE 8 0.00 Mostly Cloudy BKN065 BKN075 86.2 60.8 43% 86 30.22 0.0
18 14:15 S 9 G 17 0.00 Mostly Cloudy BKN050 BKN065 86.5 60.3 41% 86 30.23 0.0
18 13:35 SE 9 0.00 Partly Cloudy SCT050 84.4 60.4 45% 84 30.23 0.0
18 13:15 S 3 G 16 0.00 Partly Cloudy SCT048 85.6 60.8 43% 86 30.24 0.0
18 12:55 S 8 0.00 Partly Cloudy SCT048 84.6 60.8 45% 85 30.25 0.0
18 12:35 S 9 0.00 Partly Cloudy SCT046 84.4 61 45% 85 30.25 0.0
18 12:15 S 9 0.00 Partly Cloudy SCT044 83.5 60.8 46% 84 30.26 0.0
18 11:35 S 10 G 16 0.00 Fair CLR 80.8 60.8 51% 82 30.27 0.0
18 11:15 S 12 G 18 0.00 Fair CLR 80.2 60.8 52% 81 30.27 0.0
18 10:55 S 14 G 18 0.00 Fair CLR 78.8 60.3 53% 80 30.28 0.0
18 10:35 S 12 G 18 0.00 Fair CLR 77.4 59.9 55% 79 30.29 0.0
18 10:15 S 14 G 21 0.00 Fair CLR 76.3 59.9 57% 78 30.29 0.0
18 09:55 S 12 0.00 Fair CLR 75.2 59.4 58% 78 30.28 0.0
18 09:35 S 14 G 21 0.00 Fair CLR 73.4 58.8 60% 30.29 0.0
18 09:15 S 10 G 16 0.00 Fair CLR 72.3 59.5 64% 30.29 0.0
18 08:55 S 8 0.00 Fair CLR 70 59.9 71% 30.29 0.0
18 08:35 SE 6 0.00 Fair CLR 68.9 60.4 75% 30.3 0.0
18 08:15 SE 5 10.00 Fair CLR 66.4 62.1 86% 30.3 0.0
18 07:55 Calm 10.00 Fair CLR 64.8 63.3 95% 30.29 0.0
18 07:35 Calm 10.00 Fair CLR 63.1 63.1 100% 30.28 0.0
18 07:15 Calm 10.00 Fair CLR 61.7 61.7 100% 30.28 0.0
18 06:55 Calm 10.00 Fair CLR 59.9 59.9 100% 30.27 0.0
18 06:35 Calm 10.00 Fair CLR 59.9 59.9 100% 30.27 0.0
18 06:15 Calm 10.00 Fair CLR 60.4 60.4 100% 30.27 0.0
18 05:55 Calm 10.00 Fair CLR 60.4 60.4 100% 30.26 0.0
18 05:35 Calm 10.00 Fair CLR 61 61 100% 30.26 0.0
18 05:15 SE 3 10.00 Fair CLR 61.3 61.3 100% 30.26 0.0
18 04:55 Calm 10.00 Fair CLR 61.5 61.5 100% 30.26 0.0
18 04:35 Calm 10.00 Fair CLR 61.9 61.9 100% 30.26 0.0
18 04:15 E 3 10.00 Fair CLR 61.9 61.9 100% 30.26 0.0
18 03:55 NE 3 10.00 Fair CLR 63 63 100% 30.26 0.0
18 03:35 N 5 10.00 Fair CLR 63.9 63.7 99% 30.27 0.0
18 03:15 Calm 0.00 NULL NULL 65.1 63.9 96% 30.27 0.0
18 02:55 NE 6 10.00 Fair CLR 65.7 64.4 96% 30.27 0.0
18 02:35 N 3 10.00 Fair CLR 67.3 63.3 87% 30.26 0.0
18 02:15 SE 6 10.00 Fair CLR 66.2 64.2 93% 30.25 0.0
18 01:55 SE 6 10.00 Fair CLR 65.7 64.6 96% 30.25 0.0
18 01:35 NE 8 10.00 Fair CLR 65.5 64.6 97% 30.26 0.0
18 01:15 N 13 G 21 10.00 Fair CLR 65.1 64.4 98% 30.28 0.0
18 00:55 E 3 10.00 Partly Cloudy SCT120 66.2 63.7 92% 30.23 0.0
18 00:35 SE 7 10.00 Mostly Cloudy SCT060 SCT085 BKN120 65.3 64.6 98% 30.24 0.0
18 00:15 S 9 10.00 Mostly Cloudy SCT060 SCT065 BKN120 64.9 64.9 100% 30.24 0.0
17 23:55 SW 6 10.00 Fair CLR 65.5 64.2 96% 30.26 0.0
17 23:35 NW 6 10.00 Partly Cloudy SCT050 SCT120 65.3 64.4 97% 30.29 0.0
17 23:15 W 9 G 16 10.00 Mostly Cloudy SCT045 BKN055 64.9 64.9 100% 30.31 0.0
17 22:55 W 14 G 18 10.00 Overcast BKN043 OVC055 66.2 65.3 97% 30.32 0.0
17 22:35 NW 16 G 23 10.00 Mostly Cloudy BKN039 BKN049 BKN060 69.8 60.8 73% 30.32 0.0
17 22:15 Calm 10.00 Partly Cloudy SCT100 73.8 61.7 66% 30.29 0.0
17 21:55 E 3 10.00 Fair CLR 74.5 61.7 65% 30.27 0.0
17 21:35 E 5 10.00 Fair CLR 75.2 61.7 63% 77 30.26 0.0
17 21:15 E 6 10.00 Fair CLR 76.1 61.7 61% 78 30.25 0.0
17 20:55 E 6 10.00 Fair CLR 77.2 61.5 59% 79 30.24 0.0
17 20:35 E 6 0.00 Fair CLR 78.3 61.3 56% 80 30.24 0.0
17 20:15 E 7 0.00 Fair CLR 79.7 60.8 53% 81 30.22 0.0
17 19:55 E 9 0.00 Fair CLR 81.7 59.9 48% 82 30.21 0.0
17 19:35 E 10 0.00 Fair CLR 83.3 60.1 46% 83 30.2 0.0
17 19:15 SE 10 0.00 Fair CLR 83.8 59.7 44% 84 30.2 0.0
17 18:55 E 8 0.00 Fair CLR 85.1 59.7 42% 85 30.2 0.0
17 18:35 E 10 0.00 Partly Cloudy SCT050 85.6 60.1 42% 85 30.2 0.0
17 18:15 SE 10 0.00 Mostly Cloudy BKN050 85.8 60.1 42% 86 30.2 0.0
17 17:55 SE 8 0.00 Partly Cloudy SCT050 84.6 59.9 43% 84 30.21 0.0
17 17:35 E 7 0.00 Fair CLR 86.5 59.9 41% 86 30.21 0.0
17 17:15 SE 7 0.00 Fair CLR 86.7 60.1 41% 86 30.21 0.0
17 16:55 SE 15 0.00 Fair CLR 86.9 60.6 41% 87 30.21 0.0
17 16:35 SE 12 G 18 0.00 Partly Cloudy SCT050 SCT060 85.8 60.3 42% 86 30.22 0.0
17 16:15 E 13 G 21 0.00 Mostly Cloudy SCT050 BKN060 87.1 60.3 41% 87 30.23 0.0
17 15:35 E 8 G 16 0.00 Mostly Cloudy BKN050 BKN070 84.6 60.1 44% 85 30.24 0.0
17 15:15 E 9 0.00 Mostly Cloudy BKN050 BKN065 86.5 60.8 42% 87 30.24 0.0
17 14:55 E 9 0.00 Mostly Cloudy BKN048 86.7 61.3 43% 87 30.24 0.0
17 14:35 SE 10 0.00 Mostly Cloudy BKN048 83.5 61.3 47% 84 30.24 0.0
17 14:15 E 6 G 9 0.00 Mostly Cloudy BKN048 82.9 60.8 47% 83 30.25 0.0
17 13:55 E 6 0.00 Partly Cloudy SCT048 84.6 60.3 44% 85 30.25 0.0
17 13:35 E 8 0.00 Partly Cloudy SCT050 83.7 59.9 45% 84 30.25 0.0
17 13:15 SE 8 0.00 Fair CLR 84.4 59.9 44% 84 30.25 0.0
17 12:55 E 6 0.00 Partly Cloudy SCT044 83.3 60.8 47% 84 30.25 0.0
17 12:35 E 12 0.00 Fair CLR 82.8 61.2 48% 83 30.25 0.0
17 12:15 E 9 0.00 Fair CLR 81.5 61 50% 82 30.25 0.0
17 11:55 E 5 0.00 Fair CLR 81 61.5 52% 82 30.25 0.0
17 11:35 SE 9 0.00 Fair CLR 80.8 62.2 53% 82 30.25 0.0
17 11:15 SE 8 0.00 Fair CLR 79.7 61.5 54% 81 30.25 0.0
17 10:55 SE 8 0.00 Fair CLR 79.7 62.4 56% 81 30.25 0.0
17 10:35 E 7 0.00 Fair CLR 78.3 61.5 57% 80 30.25 0.0
17 10:15 E 9 0.00 Fair CLR 77.2 61.3 58% 79 30.24 0.0
17 09:55 E 6 0.00 Fair CLR 76.5 61.7 60% 78 30.24 0.0
17 09:35 E 8 0.00 Fair CLR 74.3 62.8 67% 30.24 0.0
17 09:15 E 8 0.00 Fair CLR 73.2 62.4 69% 30.23 0.0
17 08:55 NE 6 10.00 Fair CLR 71.8 63.5 75% 30.24 0.0
17 08:35 E 7 10.00 Fair CLR 70.3 63.5 79% 30.23 0.0
17 08:15 NE 6 10.00 Fair CLR 67.6 63.5 87% 30.23 0.0
17 07:35 Calm 10.00 Fair CLR 63.9 63 97% 30.21 0.0
17 07:15 NE 5 10.00 Fair CLR 62.6 62.6 100% 30.21 0.0
17 06:55 Calm 10.00 Fair CLR 61.5 61.5 100% 30.21 0.0
17 06:35 Calm 10.00 Fair CLR 61 61 100% 30.21 0.0
17 06:15 NE 3 10.00 Fair CLR 61.7 61.7 100% 30.2 0.0
17 05:55 NE 5 10.00 Fair CLR 61.9 61.9 100% 30.19 0.0
17 05:35 NE 6 0.00 NULL NULL 62.2 62.2 100% 30.18 0.0
17 05:15 NE 3 10.00 Fair CLR 62.6 62.6 100% 30.18 0.0
17 04:55 E 3 10.00 Fair CLR 63.5 63.5 100% 30.18 0.0
17 04:35 NE 6 10.00 Fair CLR 63.5 63.5 100% 30.18 0.0
17 04:15 NE 6 10.00 Fair CLR 63.7 63.7 100% 30.18 0.0
17 03:55 Calm 10.00 Fair CLR 63.9 63.9 100% 30.17 0.0
17 03:35 NE 5 10.00 Fair CLR 64.4 64.4 100% 30.17 0.0
17 03:15 Calm 10.00 Fair CLR 64.9 63.5 95% 30.16 0.0
17 02:55 Calm 10.00 Fair CLR 65.7 62.8 90% 30.16 0.0
17 02:35 N 5 10.00 Fair CLR 67.1 62.8 86% 30.14 0.0
17 02:15 W 5 10.00 Partly Cloudy SCT110 67.1 62.8 86% 30.12 0.0
17 01:55 SW 3 0.00 Partly Cloudy SCT095 SCT120 67.6 62.6 84% 30.11 0.0
17 01:35 N 7 10.00 Partly Cloudy SCT095 67.3 62.6 85% 30.13 0.0
17 01:15 NE 9 10.00 Partly Cloudy SCT095 68 63.3 85% 30.13 0.0
17 00:55 Calm 10.00 Fair CLR 68 63.5 86% 30.11 0.0
17 00:35 Calm 10.00 Fair CLR 68.5 63.5 84% 30.11 0.0
17 00:15 SE 6 10.00 Partly Cloudy SCT100 69.3 63.5 82% 30.12 0.0
16 23:55 SE 7 10.00 Fair CLR 70.2 64.4 82% 30.12 0.0
16 23:35 E 8 10.00 Fair CLR 70.5 64.9 83% 30.13 0.0
16 23:15 SE 12 10.00 Fair CLR 71.1 65.3 82% 30.12 0.0
16 22:55 E 14 G 17 10.00 Fair CLR 71.8 65.7 81% 30.13 0.0
16 22:35 E 14 10.00 Partly Cloudy SCT100 72.5 64.8 77% 30.12 0.0
16 22:15 E 10 10.00 Partly Cloudy SCT060 SCT100 72.5 63.1 73% 30.12 0.0
16 21:55 E 3 10.00 Fair CLR 72.3 62.8 72% 30.08 0.0
16 21:35 SE 3 10.00 Fair CLR 72.9 62.4 70% 30.07 0.0
16 21:15 SE 5 10.00 Fair CLR 74.7 62.1 65% 30.05 0.0
16 20:55 SE 6 10.00 Fair CLR 75.6 61.7 62% 78 30.05 0.0
16 20:35 SE 6 10.00 Fair CLR 77.4 61.7 59% 79 30.05 0.0
16 20:15 SE 9 0.00 Fair CLR 79.2 61.9 56% 81 30.04 0.0
16 19:55 SE 9 0.00 Fair CLR 78.8 63.1 59% 80 30.04 0.0
16 19:35 SE 13 0.00 Fair CLR 80.2 64.6 59% 82 30.04 0.0
16 19:15 SE 13 10.00 Fair CLR 82.4 63.3 53% 84 30.03 0.0
16 18:55 SE 13 0.00 Fair CLR 83.3 64 52% 85 30.03 0.0
16 18:35 E 15 10.00 Fair CLR 85.8 63.5 47% 87 30.02 0.0
16 18:15 E 10 10.00 Fair CLR 85.8 63.1 47% 87 30.02 0.0
16 17:55 E 18 10.00 Fair CLR 86.4 62.4 45% 87 30.03 0.0
16 17:35 E 17 G 21 10.00 Partly Cloudy SCT065 SCT075 87.1 62.6 44% 88 30.02 0.0
16 17:15 E 16 G 20 10.00 Mostly Cloudy SCT065 BKN075 BKN120 90.3 62.4 39% 91 30 0.0
16 16:55 Calm 0.00 Mostly Cloudy SCT090 BKN120 89.2 62.2 41% 90 30 0.0
16 16:35 E 7 0.00 Partly Cloudy SCT090 94.1 63.3 36% 96 30 0.0
16 16:15 Calm 10.00 Fair CLR 93 61.9 36% 94 30.01 0.0
16 15:55 S 5 10.00 Partly Cloudy SCT065 SCT075 89.8 62.2 40% 90 30.01 0.0
16 15:35 Calm 0.00 Partly Cloudy SCT075 SCT085 91.9 62.1 37% 93 30.01 0.0
16 15:15 S 5 10.00 Fair CLR 92.1 62.8 38% 93 30.02 0.0
16 14:55 Calm 10.00 Partly Cloudy SCT060 SCT075 90.7 63 40% 92 30.03 0.0
16 14:35 E 7 10.00 Mostly Cloudy BKN060 BKN075 91.2 63.1 39% 92 30.03 0.0
16 14:15 SW 3 10.00 Partly Cloudy SCT060 91.4 62.2 38% 92 30.04 0.0
16 13:35 Calm 10.00 Fair CLR 88.5 62.8 42% 89 30.04 0.0
16 13:15 E 5 0.00 Partly Cloudy SCT060 86.9 64.4 47% 88 30.05 0.0
16 12:55 E 3 10.00 Partly Cloudy SCT041 SCT065 87.4 64 46% 89 30.05 0.0
16 12:35 S 3 10.00 Fair CLR 86.9 65.7 49% 89 30.06 0.0
16 12:15 Calm 10.00 Fair CLR 86 65.5 50% 88 30.06 0.0
16 11:55 SE 5 10.00 Fair CLR 85.5 67.3 55% 88 30.06 0.0
16 11:35 Calm 10.00 Fair CLR 84.9 66.6 54% 87 30.06 0.0
16 11:15 E 5 10.00 Fair CLR 83.3 67.5 59% 86 30.05 0.0
16 10:55 E 3 10.00 Fair CLR 82.4 67.3 60% 85 30.05 0.0
16 10:35 E 3 10.00 Fair CLR 81.7 66.7 61% 84 30.05 0.0
16 10:15 E 3 10.00 Fair CLR 79.3 67.3 67% 82 30.05 0.0
16 09:55 Calm 10.00 Fair CLR 77.7 66.7 69% 80 30.05 0.0
16 09:35 E 5 10.00 Fair CLR 76.5 66.6 72% 78 30.04 0.0
16 09:15 E 5 10.00 Fair CLR 75.6 66.4 73% 77 30.04 0.0
16 08:55 E 7 10.00 Fair CLR 74.3 65.8 75% 30.04 0.0
16 08:35 E 8 10.00 Fair CLR 73.6 65.5 76% 30.04 0.0
16 08:15 NE 9 10.00 Fair CLR 73 64.6 75% 30.03 0.0
16 07:55 NE 8 10.00 Fair CLR 71.6 63.5 76% 30.03 0.0
16 07:35 NE 6 10.00 Fair CLR 70.7 63 77% 30.01 0.0
16 07:15 N 7 10.00 Fair CLR 70 62.6 78% 30 0.0
16 06:55 N 8 10.00 Fair CLR 69.6 61.7 76% 30 0.0
16 06:35 N 8 10.00 Fair CLR 70.2 61.9 75% 30 0.0
Date Time (cdt) Wind (mph) Vis. (mi.) Weather Sky Cond. Air Dwpt Max. Min. Relative Humidity Wind Chill (°F) Heat Index (°F) altimeter (in) sea level (mb) 1 hr 3 hr 6 hr
6 hour
Temperature (ºF) Pressure Precipitation (in)